User: anonymous   Login
Location: Unspecified
(0.0000°N, 0.0000°E)
Time: 04:12:37
(UTC+00:00)
Language:

TBA - TO BE ASSIGNED - Orbit

View from above orbital plane
View from above orbital plane
View from above satellite
View from above satellite

Ground track
Ground track

The orbit is defined by the following mean orbital elements,

1 67944U          26145.26485622 +.00000000 +00000-0 +57173-3 0 00002
2 67944  43.0015 118.1078 0001726 271.0798  88.9856 15.27593187    03
Epoch (UTC): 25 May 2026 06:21:23
Eccentricity: 0.0001726
inclination: 43.0015°
perigee height: 482 km
apogee height: 484 km
right ascension of ascending node: 118.1078°
argument of perigee: 271.0798°
revolutions per day: 15.27593187
mean anomaly at epoch: 88.9856°

The dashed part of the orbit path shows where the satellite is in the earth's shadow,  

DLR